Theta_e
304 304 304 304 304 303 302 303 303 303 303 303 304 304 304 303 302 301 299 297 296 295 295 294 294 294 294 294 293 293 293 292 291 290 289 289 289 288 287 287 288 288 288
299 301 302 303 304 304 303 301 300 301 301 302 302 302 302 302 303 302 300 299 296 294 295 294 294 293 293 293 293 292 292 291 290 290 289 289 289 288 288 289 289 289 289
298 298 299 300 302 302 303 303 301 299 299 299 300 300 301 301 301 301 301 299 298 297 295 295 294 293 292 293 292 292 292 291 290 289 289 289 289 288 289 289 290 289 289
294 297 297 297 298 298 300 301 301 301 299 298 298 299 300 300 300 299 300 299 298 296 296 295 294 293 293 293 292 292 292 291 289 289 288 288 288 288 288 288 288 287 287
291 292 292 294 296 297 297 298 299 300 299 298 297 296 296 298 299 299 299 298 297 296 295 295 294 293 292 292 292 292 291 290 289 288 287 287 287 286 286 286 285 284 284
288 288 289 290 292 296 297 297 298 297 298 298 296 295 294 295 297 298 297 298 297 296 295 294 293 292 291 290 290 290 290 290 289 288 286 287 286 285 285 284 283 282 282
286 286 286 287 288 289 292 294 297 298 298 297 295 294 293 293 293 294 296 296 296 296 296 294 293 292 290 289 289 288 288 288 287 286 286 286 285 285 284 283 283 283 282
285 285 285 285 285 287 287 289 292 295 297 297 295 293 293 292 292 292 292 293 294 295 295 295 294 292 291 290 288 288 288 287 287 286 285 284 283 283 282 283 283 282 281
285 285 285 285 285 284 285 285 287 291 295 297 297 294 292 292 290 291 290 289 292 294 294 293 293 292 291 289 288 287 287 286 285 284 284 284 282 282 282 282 282 280 280
284 284 284 284 284 284 284 284 284 285 290 294 296 296 293 290 289 288 288 288 289 290 290 291 290 291 290 288 288 287 286 286 285 284 283 283 281 282 280 280 280 280 279
283 284 284 284 283 283 284 284 284 284 285 290 293 295 296 291 289 288 286 287 288 287 287 290 289 288 287 287 287 286 286 285 284 282 282 282 281 280 280 280 279 279 278
281 282 283 283 284 283 283 283 283 283 284 285 290 292 293 296 289 287 286 287 287 288 287 287 287 285 286 285 285 285 284 283 282 282 281 281 279 279 279 278 278 277 277
279 280 281 282 283 283 283 283 282 282 282 284 285 290 292 292 293 286 284 285 286 286 285 286 286 284 285 284 284 284 282 281 281 280 281 280 278 277 277 277 278 277 277
275 277 278 278 280 281 281 281 280 280 280 281 283 286 290 290 291 291 285 283 286 284 283 282 282 282 282 282 282 281 281 281 281 281 280 279 278 277 276 277 277 277 277
271 272 272 272 273 275 278 279 278 279 278 280 282 283 285 289 289 289 288 284 286 284 284 282 280 281 280 280 281 281 281 281 282 282 281 278 277 276 277 277 277 277 276
267 267 267 267 267 269 271 276 277 276 277 280 281 281 282 285 284 283 286 285 285 284 282 283 280 281 280 280 280 281 280 280 280 281 277 276 276 276 275 276 276 276 276
263 264 264 264 265 266 267 269 271 277 276 278 280 281 282 282 282 281 283 284 284 283 282 282 282 280 280 280 280 280 280 280 281 278 276 276 276 275 275 275 275 275 275
262 263 263 263 264 264 265 267 268 270 273 275 278 279 281 282 282 281 281 282 284 281 280 280 281 280 279 280 280 281 280 279 279 275 274 275 275 274 274 274 274 274 274
263 263 263 264 264 265 265 266 267 269 271 274 276 278 280 282 282 282 281 281 284 281 279 279 280 282 281 280 280 280 280 280 276 274 275 274 274 273 273 273 273 273 273
264 264 264 265 265 265 266 267 268 269 271 274 276 277 279 280 282 282 281 281 282 281 279 278 279 281 280 279 279 279 279 275 274 274 273 273 273 273 273 272 272 272 272
264 265 266 266 267 268 269 269 270 270 272 275 276 277 277 279 281 281 280 280 281 282 279 277 279 280 279 278 278 277 275 274 274 273 273 272 272 272 272 271 271 271 271
265 266 267 267 269 270 271 272 272 273 274 275 276 276 277 279 280 280 279 280 280 281 280 279 279 279 278 277 276 275 274 274 273 272 272 272 272 271 271 271 271 270 270
267 267 268 269 271 272 273 273 274 274 274 275 275 275 276 278 279 279 279 279 279 280 280 278 278 277 275 275 274 272 273 273 272 271 271 271 271 271 271 270 270 269 269
267 268 269 270 271 271 272 273 273 274 274 275 275 276 277 277 278 278 278 278 278 278 278 277 276 275 274 273 272 273 272 271 271 271 270 270 270 270 270 270 269 269 269
267 268 268 269 269 270 271 272 273 273 274 274 275 275 276 276 277 276 276 276 276 276 276 274 274 273 271 272 273 271 271 271 270 270 270 270 270 270 269 269 269 268 268
267 268 268 268 269 269 270 271 271 272 273 273 274 274 274 275 274 274 274 274 275 274 274 272 271 272 272 271 271 270 270 270 270 270 269 269 269 269 269 269 268 268 268
Wind_Speed
22 22 21 19 21 22 27 30 34 37 40 42 41 43 45 47 50 53 55 54 53 52 49 47 46 44 42 38 34 31 28 26 24 22 19 17 15 13 15 16 18 18 20
26 23 23 24 22 22 24 26 30 34 37 42 43 45 48 48 49 52 56 58 57 57 53 51 50 48 46 41 38 34 30 27 25 25 23 21 18 16 16 18 20 21 21
27 28 27 26 27 26 25 25 26 28 33 37 43 45 49 50 51 53 55 60 60 59 57 54 53 51 50 46 42 37 32 29 28 27 26 24 22 20 20 22 22 23 22
31 28 30 30 30 32 31 28 29 28 28 34 41 44 47 50 52 53 54 59 62 63 60 56 56 55 54 49 45 39 36 34 31 30 29 26 23 22 23 22 21 22 19
34 32 31 31 31 31 33 33 30 30 31 30 35 42 49 49 51 54 55 57 62 64 62 60 59 57 55 50 47 43 41 37 35 34 32 28 26 24 21 20 18 19 17
34 35 33 32 32 33 34 35 33 33 32 31 35 39 45 51 51 52 54 54 59 61 65 64 60 59 58 52 48 44 41 39 38 36 35 31 27 24 20 17 16 15 15
36 38 39 37 35 33 33 33 33 33 35 33 34 35 42 47 48 51 53 56 57 58 62 65 62 63 58 54 50 46 43 41 38 35 33 31 28 23 19 17 16 15 18
34 36 39 41 42 39 38 37 34 34 33 35 32 33 36 42 42 46 49 53 54 55 59 61 62 65 61 58 53 50 47 44 41 38 34 31 26 21 19 17 17 16 18
36 39 39 41 44 46 45 43 40 36 33 33 36 33 33 36 39 40 42 53 50 53 58 61 62 63 61 59 55 51 48 45 41 39 34 31 25 21 21 18 13 15 18
41 41 43 44 44 46 48 49 45 41 39 34 34 38 34 33 34 37 40 43 50 53 58 58 62 61 58 58 55 52 51 46 41 37 34 29 27 22 18 16 15 14 15
44 47 48 47 50 50 50 50 51 45 42 40 36 34 38 33 32 33 37 43 50 55 56 56 57 58 54 53 55 52 47 42 39 36 31 29 26 23 21 17 15 14 14
50 50 49 50 53 55 55 53 51 50 44 42 41 37 37 36 32 32 36 39 51 51 53 52 52 53 51 52 51 46 43 39 36 35 33 29 28 23 21 16 14 15 15
56 58 58 57 54 55 58 58 54 50 48 44 40 40 38 37 35 31 32 38 51 53 46 45 45 46 50 51 50 45 42 42 40 37 32 30 24 21 19 16 15 15 14
61 63 64 63 62 58 56 57 54 49 44 43 41 41 39 39 37 33 30 31 45 44 42 38 41 39 44 46 41 35 44 42 38 35 30 26 25 23 18 17 16 16 16
63 64 64 61 60 58 55 54 53 50 38 40 40 39 38 39 41 31 26 32 42 47 43 35 34 39 44 44 43 41 40 39 37 34 32 29 27 23 20 18 17 15 16
57 56 52 49 50 51 51 54 52 45 35 36 37 35 39 36 33 35 19 28 38 47 42 41 40 44 45 48 50 49 44 40 37 35 30 28 25 24 19 17 15 15 17
46 47 46 44 43 43 42 41 46 48 35 31 33 32 37 36 34 28 21 21 38 41 48 46 45 48 49 51 51 49 45 40 36 32 30 28 25 21 19 15 13 15 18
41 42 42 43 42 40 37 38 37 38 38 30 28 28 30 33 34 27 22 22 37 41 47 46 48 50 51 50 49 47 45 37 32 31 29 25 23 20 16 14 13 15 18
38 39 39 40 39 39 38 39 40 37 38 35 31 29 23 30 27 31 22 30 37 45 44 44 48 45 46 48 48 47 40 36 33 31 27 25 21 18 14 12 13 14 19
38 38 37 37 37 37 37 37 35 34 33 29 31 29 24 19 27 33 25 28 30 41 44 43 42 40 41 46 46 41 37 32 30 27 24 20 18 15 13 12 13 16 19
34 35 34 34 35 34 33 32 30 29 26 28 29 25 20 19 29 32 25 27 33 34 43 43 35 36 37 37 36 37 32 30 26 23 21 18 16 14 13 11 12 15 19
31 32 32 31 30 31 31 29 22 21 24 24 22 19 15 19 28 31 27 30 32 31 28 31 34 29 28 32 34 30 26 25 23 22 19 16 14 13 12 12 14 17 20
24 24 24 24 21 20 17 14 16 17 15 15 13 12 14 18 26 26 25 27 24 25 26 27 24 24 28 27 22 22 21 19 18 16 15 13 13 12 12 12 15 18 21
21 20 19 18 16 14 11 8 6 5 5 7 9 11 11 16 19 19 20 21 23 25 23 20 22 26 26 22 21 20 17 17 14 13 12 11 12 12 12 14 16 19 23
19 18 18 18 17 15 13 9 6 2 4 5 7 9 11 14 17 17 21 24 25 22 23 25 25 22 20 19 16 15 14 12 11 11 11 12 12 12 14 16 19 21 24
21 20 19 18 18 17 16 15 13 10 9 8 8 8 11 16 21 24 25 25 24 23 23 22 20 18 15 13 12 11 10 10 11 11 12 12 13 14 15 18 20 22 27
Wind_Direction
354 346 330 315 302 293 289 287 280 270 263 258 253 248 244 240 237 237 237 235 233 231 230 232 234 234 233 232 232 231 231 232 233 238 244 253 267 282 290 300 305 310 316
353 348 344 333 314 302 296 290 282 277 271 263 257 252 248 243 240 237 237 237 234 232 231 231 232 232 231 231 231 231 231 232 232 236 242 246 253 259 270 283 290 301 307
343 344 342 341 336 324 303 293 288 285 278 269 261 254 252 248 244 240 238 238 237 235 234 232 233 232 231 230 230 230 231 232 234 237 239 239 245 254 264 270 277 285 293
344 339 341 342 339 337 329 311 296 287 279 276 269 263 258 253 249 246 242 240 239 237 234 234 235 235 234 231 230 230 231 231 232 234 237 238 241 248 257 268 277 288 299
339 340 340 336 335 334 334 330 316 294 286 279 273 268 263 255 251 246 243 242 241 239 238 235 235 235 236 235 233 229 229 228 229 231 231 233 239 245 257 265 279 292 308
334 336 334 334 330 323 323 328 329 321 300 286 279 274 268 260 255 250 245 243 243 242 242 239 236 235 234 232 232 231 233 232 231 231 231 233 236 242 251 263 277 291 301
334 335 333 333 329 326 320 315 318 322 319 300 283 277 273 269 261 256 252 246 242 242 243 242 238 236 232 230 228 228 229 229 230 236 235 236 235 242 245 256 268 283 294
327 328 330 332 330 326 323 319 314 309 311 311 297 283 275 272 270 263 257 251 246 245 245 244 242 239 233 229 226 226 227 227 229 231 231 234 234 237 243 254 266 287 300
323 324 325 327 325 326 325 321 315 309 301 301 304 296 282 275 271 266 260 253 246 245 244 243 241 238 233 229 226 225 226 225 226 227 226 229 233 235 245 257 273 281 297
315 316 317 319 319 319 321 320 316 313 304 295 297 299 291 280 271 266 260 249 250 244 241 238 240 238 233 227 227 225 224 224 222 222 225 227 229 231 237 248 260 276 293
306 308 310 311 311 313 314 315 314 312 306 297 289 288 293 285 275 265 250 239 246 242 241 238 239 236 232 225 226 225 226 225 222 222 223 225 227 227 232 244 255 269 277
303 301 300 302 305 307 308 309 309 307 303 297 292 286 284 289 279 263 251 240 240 244 244 242 237 235 228 221 224 224 222 220 219 221 221 225 225 227 230 234 248 263 278
301 300 299 299 297 298 301 302 304 303 299 295 288 283 281 283 283 269 256 235 231 237 242 246 242 233 225 218 219 218 213 215 214 215 217 221 226 231 234 236 245 259 271
298 297 297 297 295 293 293 295 297 296 292 290 288 281 281 279 276 276 252 232 228 226 232 234 234 224 216 212 202 203 211 211 213 214 213 220 228 231 235 243 250 262 276
296 296 295 296 295 294 290 288 288 287 281 279 278 278 276 275 275 277 267 230 221 221 229 226 211 201 197 198 197 197 209 210 210 212 213 217 224 230 236 245 257 272 293
295 295 295 294 293 292 290 287 282 284 279 266 264 263 271 275 277 274 263 239 220 221 215 220 208 199 194 195 198 197 203 206 207 208 209 217 223 231 237 246 260 281 294
297 297 295 292 291 290 289 286 287 285 282 267 261 261 259 262 267 268 261 232 214 218 213 213 213 197 196 199 202 203 204 208 209 202 209 215 223 230 240 252 269 288 300
301 298 295 292 289 287 282 281 281 284 287 281 267 264 254 248 247 253 238 218 207 204 206 205 204 202 202 204 205 208 208 208 205 206 210 215 222 232 241 257 278 296 306
304 301 300 297 291 287 283 279 281 280 276 272 267 270 261 240 234 237 231 214 208 198 204 201 208 212 213 211 210 209 207 201 203 207 213 217 224 233 245 263 285 304 315
309 305 302 297 294 289 287 285 282 278 277 270 261 271 275 245 223 217 221 213 213 200 205 203 208 213 218 212 208 204 198 194 201 208 213 220 227 235 248 267 290 309 317
313 312 311 308 304 302 297 290 285 275 271 263 268 274 264 239 220 220 213 204 214 213 205 206 212 217 219 211 203 196 190 197 202 209 214 223 233 247 258 273 296 311 319
320 318 318 313 313 306 300 296 291 282 270 274 280 277 250 229 219 213 211 212 214 216 213 211 209 219 213 200 193 189 191 199 206 211 216 225 236 247 262 283 303 316 323
331 331 332 331 328 323 320 309 288 285 282 281 277 260 245 229 208 210 215 214 209 204 201 200 206 199 187 183 179 188 198 203 208 213 220 230 244 256 273 295 308 317 325
349 350 351 353 353 353 353 343 319 296 275 263 246 232 222 199 198 207 201 189 179 175 179 186 185 179 172 171 180 192 197 204 210 218 230 244 252 265 278 294 308 318 323
7 11 15 17 20 23 24 31 41 90 159 177 182 179 175 174 174 171 164 161 158 161 166 166 163 158 163 176 186 194 203 211 218 232 243 253 261 268 280 296 306 314 320
24 25 29 33 37 40 46 52 57 64 78 90 103 122 141 148 147 149 148 148 149 151 152 148 153 165 171 181 190 199 210 221 228 239 251 262 266 276 289 299 307 312 314